Location: Hamlin Beach State Park
(43.3614°N, 77.9586°W)
Time: 11:15:52
(UTC-05:00)

Tiangong 1 - Visible Passes

Search period start: 24 February 2018 00:00
Search period end: 06 March 2018 00:00
Orbit: 245 x 266 km, 42.8° (Epoch: 24 February)

Date Brightness Start Highest point End Pass type
(mag) Time Alt. Az. Time Alt. Az. Time Alt. Az.
01 Mar 2.8 18:58:10 10° SSE 18:58:51 11° SSE 18:58:57 11° SSE visible
02 Mar 2.4 18:48:45 10° SSW 18:50:13 15° SSE 18:51:07 13° SE visible
03 Mar 1.9 18:39:31 10° SSW 18:41:19 21° SSE 18:42:56 12° ESE visible
04 Mar 1.5 18:30:09 10° SW 18:32:10 28° SSE 18:34:12 10° E visible
04 Mar 3.7 20:03:30 10° W 20:03:51 13° W 20:03:51 13° W visible
05 Mar 3.1 19:54:06 10° W 19:54:58 20° W 19:54:58 20° W visible
